Year,Month,Day,Hour,Minute,Value (Times are PST for temperature in C)
2010,06,29,00,00,13.50
2010,06,29,00,01,13.50
2010,06,29,00,02,13.50
2010,06,29,00,03,13.60
2010,06,29,00,04,13.50
2010,06,29,00,05,13.50
2010,06,29,00,06,13.50
2010,06,29,00,07,13.50
2010,06,29,00,08,13.50
2010,06,29,00,09,13.50
2010,06,29,00,10,13.50
2010,06,29,00,11,13.50
2010,06,29,00,12,13.50
2010,06,29,00,13,13.50
2010,06,29,00,14,13.50
2010,06,29,00,15,13.50
2010,06,29,00,16,13.50
2010,06,29,00,17,13.50
2010,06,29,00,18,13.50
2010,06,29,00,19,13.50
2010,06,29,00,20,13.50
2010,06,29,00,21,13.40
2010,06,29,00,22,13.50
2010,06,29,00,23,13.40
2010,06,29,00,24,13.40
2010,06,29,00,25,13.40
2010,06,29,00,26,13.40
2010,06,29,00,27,13.40
2010,06,29,00,28,13.40
2010,06,29,00,29,13.40
2010,06,29,00,30,13.40
2010,06,29,00,31,13.40
2010,06,29,00,32,13.40
2010,06,29,00,33,13.40
2010,06,29,00,34,13.40
2010,06,29,00,35,13.40
2010,06,29,00,36,13.40
2010,06,29,00,37,13.40
2010,06,29,00,38,13.40
2010,06,29,00,39,13.40
2010,06,29,00,40,13.40
2010,06,29,00,41,13.30
2010,06,29,00,42,13.30
2010,06,29,00,43,13.30
2010,06,29,00,44,13.30
2010,06,29,00,45,13.30
2010,06,29,00,46,13.30
2010,06,29,00,47,13.30
2010,06,29,00,48,13.30
2010,06,29,00,49,13.30
2010,06,29,00,50,13.20
2010,06,29,00,51,13.20
2010,06,29,00,52,13.20
2010,06,29,00,53,13.20
2010,06,29,00,54,13.20
2010,06,29,00,55,13.20
2010,06,29,00,56,13.20
2010,06,29,00,57,13.20
2010,06,29,00,58,13.20
2010,06,29,00,59,13.20
2010,06,29,01,00,13.20
2010,06,29,01,01,13.20
2010,06,29,01,02,13.20
2010,06,29,01,03,13.20
2010,06,29,01,04,13.20
2010,06,29,01,05,13.10
2010,06,29,01,06,13.10
2010,06,29,01,07,13.10
2010,06,29,01,08,13.10
2010,06,29,01,09,13.10
2010,06,29,01,10,13.10
2010,06,29,01,11,13.10
2010,06,29,01,12,13.10
2010,06,29,01,13,13.10
2010,06,29,01,14,13.10
2010,06,29,01,15,13.00
2010,06,29,01,16,13.00
2010,06,29,01,17,13.00
2010,06,29,01,18,13.00
2010,06,29,01,19,13.00
2010,06,29,01,20,12.90
2010,06,29,01,21,12.90
2010,06,29,01,22,12.90
2010,06,29,01,23,12.90
2010,06,29,01,24,12.90
2010,06,29,01,25,12.90
2010,06,29,01,26,12.80
2010,06,29,01,27,12.80
2010,06,29,01,28,12.80
2010,06,29,01,29,12.80
2010,06,29,01,30,12.80
2010,06,29,01,31,12.80
2010,06,29,01,32,12.80
2010,06,29,01,33,12.70
2010,06,29,01,34,12.70
2010,06,29,01,35,12.70
2010,06,29,01,36,12.70
2010,06,29,01,37,12.70
2010,06,29,01,38,12.70
2010,06,29,01,39,12.60
2010,06,29,01,40,12.60
2010,06,29,01,41,12.60
2010,06,29,01,42,12.60
2010,06,29,01,43,12.60
2010,06,29,01,44,12.60
2010,06,29,01,45,12.60
2010,06,29,01,46,12.50
2010,06,29,01,47,12.50
2010,06,29,01,48,12.50
2010,06,29,01,49,12.50
2010,06,29,01,50,12.40
2010,06,29,01,51,12.40
2010,06,29,01,52,12.40
2010,06,29,01,53,12.40
2010,06,29,01,54,12.30
2010,06,29,01,55,12.30
2010,06,29,01,56,12.30
2010,06,29,01,57,12.30
2010,06,29,01,58,12.30
2010,06,29,01,59,12.30
2010,06,29,02,00,12.20
2010,06,29,02,01,12.20
2010,06,29,02,02,12.20
2010,06,29,02,03,12.20
2010,06,29,02,04,12.10
2010,06,29,02,05,12.10
2010,06,29,02,06,12.10
2010,06,29,02,07,12.10
2010,06,29,02,08,12.00
2010,06,29,02,09,12.00
2010,06,29,02,10,12.00
2010,06,29,02,11,11.90
2010,06,29,02,12,11.90
2010,06,29,02,13,11.90
2010,06,29,02,14,11.90
2010,06,29,02,15,11.90
2010,06,29,02,16,11.80
2010,06,29,02,17,11.80
2010,06,29,02,18,11.80
2010,06,29,02,19,11.80
2010,06,29,02,20,11.70
2010,06,29,02,21,11.70
2010,06,29,02,22,11.70
2010,06,29,02,23,11.70
2010,06,29,02,24,11.60
2010,06,29,02,25,11.60
2010,06,29,02,26,11.60
2010,06,29,02,27,11.60
2010,06,29,02,28,11.50
2010,06,29,02,29,11.50
2010,06,29,02,30,11.50
2010,06,29,02,31,11.40
2010,06,29,02,32,11.40
2010,06,29,02,33,11.30
2010,06,29,02,34,11.30
2010,06,29,02,35,11.30
2010,06,29,02,36,11.20
2010,06,29,02,37,11.20
2010,06,29,02,38,11.20
2010,06,29,02,39,11.20
2010,06,29,02,40,11.10
2010,06,29,02,41,11.10
2010,06,29,02,42,11.10
2010,06,29,02,43,11.10
2010,06,29,02,44,11.00
2010,06,29,02,45,11.00
2010,06,29,02,46,10.90
2010,06,29,02,47,10.90
2010,06,29,02,48,10.90
2010,06,29,02,49,10.80
2010,06,29,02,50,10.80
2010,06,29,02,51,10.80
2010,06,29,02,52,10.80
2010,06,29,02,53,10.70
2010,06,29,02,54,10.70
2010,06,29,02,55,10.70
2010,06,29,02,56,10.70
2010,06,29,02,57,10.60
2010,06,29,02,58,10.60
2010,06,29,02,59,10.60
2010,06,29,03,00,10.60
2010,06,29,03,01,10.60
2010,06,29,03,02,10.50
2010,06,29,03,03,10.50
2010,06,29,03,04,10.50
2010,06,29,03,05,10.50
2010,06,29,03,06,10.50
2010,06,29,03,07,10.40
2010,06,29,03,08,10.40
2010,06,29,03,09,10.40
2010,06,29,03,10,10.40
2010,06,29,03,11,10.40
2010,06,29,03,12,10.40
2010,06,29,03,13,10.30
2010,06,29,03,14,10.30
2010,06,29,03,15,10.30
2010,06,29,03,16,10.30
2010,06,29,03,17,10.30
2010,06,29,03,18,10.30
2010,06,29,03,19,10.30
2010,06,29,03,20,10.30
2010,06,29,03,21,10.20
2010,06,29,03,22,10.20
2010,06,29,03,23,10.30
2010,06,29,03,24,10.30
2010,06,29,03,25,10.30
2010,06,29,03,26,10.20
2010,06,29,03,27,10.20
2010,06,29,03,28,10.20
2010,06,29,03,29,10.20
2010,06,29,03,30,10.20
2010,06,29,03,31,10.20
2010,06,29,03,32,10.30
2010,06,29,03,33,10.20
2010,06,29,03,34,10.20
2010,06,29,03,35,10.20
2010,06,29,03,36,10.20
2010,06,29,03,37,10.20
2010,06,29,03,38,10.20
2010,06,29,03,39,10.20
2010,06,29,03,40,10.20
2010,06,29,03,41,10.10
2010,06,29,03,42,10.10
2010,06,29,03,43,10.00
2010,06,29,03,44,10.00
2010,06,29,03,45,9.90
2010,06,29,03,46,9.90
2010,06,29,03,47,9.80
2010,06,29,03,48,9.80
2010,06,29,03,49,9.80
2010,06,29,03,50,9.70
2010,06,29,03,51,9.70
2010,06,29,03,52,9.70
2010,06,29,03,53,9.60
2010,06,29,03,54,9.60
2010,06,29,03,55,9.60
2010,06,29,03,56,9.50
2010,06,29,03,57,9.50
2010,06,29,03,58,9.40
2010,06,29,03,59,9.40
2010,06,29,04,00,9.30
2010,06,29,04,01,9.30
2010,06,29,04,02,9.20
2010,06,29,04,03,9.20
2010,06,29,04,04,9.20
2010,06,29,04,06,9.10
2010,06,29,04,08,9.10
2010,06,29,04,09,9.10
2010,06,29,04,10,9.00
2010,06,29,04,11,9.00
2010,06,29,04,12,8.90
2010,06,29,04,13,8.90
2010,06,29,04,14,8.90
2010,06,29,04,15,8.90
2010,06,29,04,16,8.80
2010,06,29,04,17,8.80
2010,06,29,04,18,8.80
2010,06,29,04,19,8.80
2010,06,29,04,20,8.80
2010,06,29,04,21,8.80
2010,06,29,04,22,8.80
2010,06,29,04,23,8.80
2010,06,29,04,24,8.80
2010,06,29,04,25,8.80
2010,06,29,04,26,8.70
2010,06,29,04,27,8.70
2010,06,29,04,28,8.70
2010,06,29,04,29,8.70
2010,06,29,04,30,8.70
2010,06,29,04,31,8.70
2010,06,29,04,32,8.70
2010,06,29,04,33,8.70
2010,06,29,04,34,8.70
2010,06,29,04,35,8.70
2010,06,29,04,36,8.70
2010,06,29,04,37,8.70
2010,06,29,04,38,8.80
2010,06,29,04,39,8.80
2010,06,29,04,40,8.80
2010,06,29,04,41,8.80
2010,06,29,04,42,8.90
2010,06,29,04,43,8.90
2010,06,29,04,44,8.90
2010,06,29,04,45,9.00
2010,06,29,04,46,9.00
2010,06,29,04,47,9.10
2010,06,29,04,48,9.10
2010,06,29,04,49,9.20
2010,06,29,04,50,9.20
2010,06,29,04,51,9.30
2010,06,29,04,52,9.30
2010,06,29,04,53,9.40
2010,06,29,04,54,9.50
2010,06,29,04,55,9.50
2010,06,29,04,56,9.60
2010,06,29,04,57,9.60
2010,06,29,04,58,9.70
2010,06,29,04,59,9.70
2010,06,29,05,00,9.70
2010,06,29,05,01,9.70
2010,06,29,05,02,9.70
2010,06,29,05,03,9.70
2010,06,29,05,04,9.80
2010,06,29,05,05,9.80
2010,06,29,05,06,9.80
2010,06,29,05,07,9.80
2010,06,29,05,08,9.80
2010,06,29,05,09,9.80
2010,06,29,05,10,9.80
2010,06,29,05,11,9.80
2010,06,29,05,12,9.70
2010,06,29,05,13,9.70
2010,06,29,05,14,9.70
2010,06,29,05,15,9.70
2010,06,29,05,16,9.70
2010,06,29,05,17,9.60
2010,06,29,05,18,9.60
2010,06,29,05,19,9.60
2010,06,29,05,20,9.60
2010,06,29,05,21,9.50
2010,06,29,05,22,9.50
2010,06,29,05,23,9.40
2010,06,29,05,24,9.40
2010,06,29,05,25,9.30
2010,06,29,05,26,9.30
2010,06,29,05,27,9.20
2010,06,29,05,28,9.20
2010,06,29,05,29,9.20
2010,06,29,05,30,9.20
2010,06,29,05,31,9.10
2010,06,29,05,32,9.10
2010,06,29,05,33,9.10
2010,06,29,05,34,9.10
2010,06,29,05,35,9.10
2010,06,29,05,36,9.00
2010,06,29,05,37,9.00
2010,06,29,05,38,8.90
2010,06,29,05,39,8.90
2010,06,29,05,40,8.90
2010,06,29,05,41,8.90
2010,06,29,05,42,8.90
2010,06,29,05,43,8.80
2010,06,29,05,44,8.80
2010,06,29,05,45,8.80
2010,06,29,05,46,8.80
2010,06,29,05,47,8.70
2010,06,29,05,48,8.70
2010,06,29,05,49,8.70
2010,06,29,05,50,8.70
2010,06,29,05,51,8.70
2010,06,29,05,52,8.70
2010,06,29,05,53,8.70
2010,06,29,05,54,8.70
2010,06,29,05,55,8.60
2010,06,29,05,56,8.60
2010,06,29,05,57,8.60
2010,06,29,05,58,8.60
2010,06,29,05,59,8.60
2010,06,29,06,00,8.60
2010,06,29,06,01,8.60
2010,06,29,06,02,8.50
2010,06,29,06,03,8.50
2010,06,29,06,04,8.50
2010,06,29,06,05,8.50
2010,06,29,06,06,8.50
2010,06,29,06,07,8.50
2010,06,29,06,08,8.50
2010,06,29,06,09,8.50
2010,06,29,06,10,8.50
2010,06,29,06,11,8.50
2010,06,29,06,12,8.50
2010,06,29,06,13,8.60
2010,06,29,06,14,8.60
2010,06,29,06,15,8.60
2010,06,29,06,16,8.70
2010,06,29,06,17,8.70
2010,06,29,06,18,8.70
2010,06,29,06,19,8.70
2010,06,29,06,20,8.80
2010,06,29,06,21,8.80
2010,06,29,06,22,8.80
2010,06,29,06,23,8.80
2010,06,29,06,24,8.80
2010,06,29,06,25,8.80
2010,06,29,06,26,8.90
2010,06,29,06,27,8.90
2010,06,29,06,28,8.90
2010,06,29,06,29,8.90
2010,06,29,06,30,9.00
2010,06,29,06,31,9.00
2010,06,29,06,32,9.00
2010,06,29,06,33,9.00
2010,06,29,06,34,9.10
2010,06,29,06,35,9.10
2010,06,29,06,36,9.10
2010,06,29,06,37,9.10
2010,06,29,06,38,9.10
2010,06,29,06,39,9.20
2010,06,29,06,40,9.20
2010,06,29,06,41,9.20
2010,06,29,06,42,9.20
2010,06,29,06,43,9.30
2010,06,29,06,44,9.30
2010,06,29,06,45,9.30
2010,06,29,06,46,9.30
2010,06,29,06,47,9.30
2010,06,29,06,48,9.30
2010,06,29,06,49,9.30
2010,06,29,06,50,9.40
2010,06,29,06,51,9.40
2010,06,29,06,52,9.40
2010,06,29,06,53,9.40
2010,06,29,06,54,9.40
2010,06,29,06,55,9.40
2010,06,29,06,56,9.40
2010,06,29,06,57,9.50
2010,06,29,06,58,9.50
2010,06,29,06,59,9.50
2010,06,29,07,00,9.60
2010,06,29,07,01,9.60
2010,06,29,07,02,9.60
2010,06,29,07,03,9.60
2010,06,29,07,04,9.60
2010,06,29,07,05,9.70
2010,06,29,07,06,9.70
2010,06,29,07,07,9.70
2010,06,29,07,08,9.70
2010,06,29,07,09,9.70
2010,06,29,07,10,9.80
2010,06,29,07,11,9.80
2010,06,29,07,12,9.80
2010,06,29,07,13,9.80
2010,06,29,07,14,9.80
2010,06,29,07,15,9.90
2010,06,29,07,16,9.90
2010,06,29,07,17,9.90
2010,06,29,07,18,9.90
2010,06,29,07,19,9.90
2010,06,29,07,20,10.00
2010,06,29,07,21,10.00
2010,06,29,07,22,10.00
2010,06,29,07,23,10.10
2010,06,29,07,24,10.10
2010,06,29,07,25,10.10
2010,06,29,07,26,10.10
2010,06,29,07,27,10.10
2010,06,29,07,28,10.10
2010,06,29,07,29,10.20
2010,06,29,07,30,10.20
2010,06,29,07,31,10.20
2010,06,29,07,32,10.20
2010,06,29,07,33,10.20
2010,06,29,07,34,10.30
2010,06,29,07,35,10.30
2010,06,29,07,36,10.30
2010,06,29,07,37,10.30
2010,06,29,07,38,10.30
2010,06,29,07,39,10.40
2010,06,29,07,40,10.40
2010,06,29,07,41,10.40
2010,06,29,07,42,10.40
2010,06,29,07,43,10.40
2010,06,29,07,44,10.50
2010,06,29,07,45,10.50
2010,06,29,07,46,10.60
2010,06,29,07,47,10.60
2010,06,29,07,48,10.60
2010,06,29,07,49,10.70
2010,06,29,07,50,10.70
2010,06,29,07,51,10.80
2010,06,29,07,52,10.80
2010,06,29,07,53,10.90
2010,06,29,07,54,11.00
2010,06,29,07,55,11.10
2010,06,29,07,56,11.20
2010,06,29,07,57,11.30
2010,06,29,07,58,11.40
2010,06,29,07,59,11.40
2010,06,29,08,00,11.50
2010,06,29,08,01,11.60
2010,06,29,08,02,11.70
2010,06,29,08,03,11.70
2010,06,29,08,04,11.80
2010,06,29,08,05,11.80
2010,06,29,08,06,11.80
2010,06,29,08,07,11.90
2010,06,29,08,08,11.90
2010,06,29,08,09,11.90
2010,06,29,08,10,11.90
2010,06,29,08,11,12.00
2010,06,29,08,12,12.00
2010,06,29,08,13,12.10
2010,06,29,08,14,12.10
2010,06,29,08,15,12.10
2010,06,29,08,16,12.20
2010,06,29,08,17,12.20
2010,06,29,08,18,12.20
2010,06,29,08,19,12.30
2010,06,29,08,20,12.30
2010,06,29,08,21,12.30
2010,06,29,08,22,12.30
2010,06,29,08,23,12.40
2010,06,29,08,24,12.40
2010,06,29,08,25,12.50
2010,06,29,08,26,12.50
2010,06,29,08,27,12.60
2010,06,29,08,28,12.70
2010,06,29,08,29,12.70
2010,06,29,08,30,12.80
2010,06,29,08,31,12.90
2010,06,29,08,32,13.00
2010,06,29,08,33,13.00
2010,06,29,08,34,13.10
2010,06,29,08,35,13.20
2010,06,29,08,36,13.40
2010,06,29,08,37,13.50
2010,06,29,08,38,13.60
2010,06,29,08,39,13.70
2010,06,29,08,40,13.80
2010,06,29,08,41,13.80
2010,06,29,08,42,13.90
2010,06,29,08,43,13.90
2010,06,29,08,44,14.00
2010,06,29,08,45,14.10
2010,06,29,08,46,14.10
2010,06,29,08,47,14.20
2010,06,29,08,48,14.30
2010,06,29,08,49,14.30
2010,06,29,08,50,14.30
2010,06,29,08,51,14.30
2010,06,29,08,52,14.30
2010,06,29,08,53,14.30
2010,06,29,08,54,14.40
2010,06,29,08,55,14.40
2010,06,29,08,56,14.50
2010,06,29,08,57,14.60
2010,06,29,08,58,14.60
2010,06,29,08,59,14.70
2010,06,29,09,00,14.70
2010,06,29,09,01,14.80
2010,06,29,09,02,14.90
2010,06,29,09,03,15.00
2010,06,29,09,04,15.00
2010,06,29,09,05,15.00
2010,06,29,09,06,15.20
2010,06,29,09,07,15.30
2010,06,29,09,08,15.30
2010,06,29,09,09,15.40
2010,06,29,09,10,15.30
2010,06,29,09,11,15.30
2010,06,29,09,12,15.20
2010,06,29,09,13,15.30
2010,06,29,09,14,15.30
2010,06,29,09,15,15.30
2010,06,29,09,16,15.30
2010,06,29,09,17,15.30
2010,06,29,09,18,15.30
2010,06,29,09,19,15.30
2010,06,29,09,20,15.30
2010,06,29,09,21,15.30
2010,06,29,09,22,15.20
2010,06,29,09,23,15.20
2010,06,29,09,24,15.20
2010,06,29,09,25,15.20
2010,06,29,09,26,15.20
2010,06,29,09,27,15.20
2010,06,29,09,28,15.20
2010,06,29,09,29,15.30
2010,06,29,09,30,15.30
2010,06,29,09,31,15.40
2010,06,29,09,32,15.50
2010,06,29,09,33,15.50
2010,06,29,09,34,15.60
2010,06,29,09,35,15.70
2010,06,29,09,36,15.70
2010,06,29,09,37,15.80
2010,06,29,09,38,15.90
2010,06,29,09,39,16.00
2010,06,29,09,40,16.10
2010,06,29,09,41,16.10
2010,06,29,09,42,16.10
2010,06,29,09,43,16.10
2010,06,29,09,44,16.10
2010,06,29,09,45,16.10
2010,06,29,09,46,16.10
2010,06,29,09,47,16.00
2010,06,29,09,48,16.00
2010,06,29,09,49,15.90
2010,06,29,09,50,15.90
2010,06,29,09,51,16.00
2010,06,29,09,52,16.10
2010,06,29,09,53,16.10
2010,06,29,09,54,16.20
2010,06,29,09,55,16.20
2010,06,29,09,56,16.20
2010,06,29,09,57,16.20
2010,06,29,09,58,16.20
2010,06,29,09,59,16.30
2010,06,29,10,00,16.40
2010,06,29,10,01,16.50
2010,06,29,10,02,16.50
2010,06,29,10,03,16.60
2010,06,29,10,04,16.60
2010,06,29,10,05,16.60
2010,06,29,10,06,16.60
2010,06,29,10,07,16.40
2010,06,29,10,08,16.40
2010,06,29,10,09,16.30
2010,06,29,10,10,16.30
2010,06,29,10,11,16.40
2010,06,29,10,12,16.50
2010,06,29,10,13,16.50
2010,06,29,10,14,16.40
2010,06,29,10,15,16.40
2010,06,29,10,16,16.50
2010,06,29,10,17,16.50
2010,06,29,10,18,16.50
2010,06,29,10,19,16.50
2010,06,29,10,20,16.50
2010,06,29,10,21,16.50
2010,06,29,10,22,16.50
2010,06,29,10,23,16.60
2010,06,29,10,24,16.60
2010,06,29,10,25,16.60
2010,06,29,10,26,16.70
2010,06,29,10,27,16.80
2010,06,29,10,28,16.80
2010,06,29,10,29,16.90
2010,06,29,10,30,17.00
2010,06,29,10,31,17.10
2010,06,29,10,32,17.10
2010,06,29,10,33,17.10
2010,06,29,10,34,17.10
2010,06,29,10,35,17.00
2010,06,29,10,36,17.00
2010,06,29,10,37,16.90
2010,06,29,10,38,16.90
2010,06,29,10,39,17.00
2010,06,29,10,40,17.00
2010,06,29,10,41,17.10
2010,06,29,10,42,17.10
2010,06,29,10,43,17.20
2010,06,29,10,44,17.30
2010,06,29,10,45,17.30
2010,06,29,10,46,17.40
2010,06,29,10,47,17.40
2010,06,29,10,48,17.40
2010,06,29,10,49,17.40
2010,06,29,10,50,17.40
2010,06,29,10,51,17.40
2010,06,29,10,52,17.40
2010,06,29,10,53,17.50
2010,06,29,10,54,17.50
2010,06,29,10,55,17.50
2010,06,29,10,56,17.50
2010,06,29,10,57,17.50
2010,06,29,10,58,17.50
2010,06,29,10,59,17.50
2010,06,29,11,00,17.40
2010,06,29,11,01,17.40
2010,06,29,11,02,17.40
2010,06,29,11,03,17.30
2010,06,29,11,04,17.30
2010,06,29,11,05,17.30
2010,06,29,11,06,17.30
2010,06,29,11,07,17.20
2010,06,29,11,08,17.20
2010,06,29,11,09,17.10
2010,06,29,11,10,17.10
2010,06,29,11,11,17.10
2010,06,29,11,12,17.20
2010,06,29,11,13,17.30
2010,06,29,11,14,17.40
2010,06,29,11,15,17.50
2010,06,29,11,16,17.70
2010,06,29,11,17,17.90
2010,06,29,11,18,18.00
2010,06,29,11,19,18.20
2010,06,29,11,20,18.30
2010,06,29,11,21,18.50
2010,06,29,11,22,18.60
2010,06,29,11,23,18.60
2010,06,29,11,24,18.60
2010,06,29,11,25,18.60
2010,06,29,11,26,18.50
2010,06,29,11,27,18.50
2010,06,29,11,28,18.50
2010,06,29,11,29,18.50
2010,06,29,11,30,18.40
2010,06,29,11,31,18.40
2010,06,29,11,32,18.40
2010,06,29,11,33,18.30
2010,06,29,11,34,18.30
2010,06,29,11,35,18.40
2010,06,29,11,36,18.30
2010,06,29,11,37,18.30
2010,06,29,11,38,18.20
2010,06,29,11,39,18.00
2010,06,29,11,40,17.80
2010,06,29,11,41,17.50
2010,06,29,11,42,17.30
2010,06,29,11,43,17.10
2010,06,29,11,44,17.00
2010,06,29,11,45,16.90
2010,06,29,11,46,16.90
2010,06,29,11,47,17.00
2010,06,29,11,48,17.00
2010,06,29,11,49,16.90
2010,06,29,11,50,16.70
2010,06,29,11,51,16.50
2010,06,29,11,52,16.30
2010,06,29,11,53,16.10
2010,06,29,11,54,16.00
2010,06,29,11,55,15.80
2010,06,29,11,56,15.70
2010,06,29,11,57,15.70
2010,06,29,11,58,15.60
2010,06,29,11,59,15.60
2010,06,29,12,00,15.60
2010,06,29,12,01,15.60
2010,06,29,12,02,15.60
2010,06,29,12,03,15.60
2010,06,29,12,04,15.60
2010,06,29,12,05,15.60
2010,06,29,12,06,15.70
2010,06,29,12,07,15.70
2010,06,29,12,08,15.70
2010,06,29,12,09,15.70
2010,06,29,12,10,15.70
2010,06,29,12,11,15.70
2010,06,29,12,12,15.70
2010,06,29,12,13,15.80
2010,06,29,12,14,15.80
2010,06,29,12,15,15.80
2010,06,29,12,16,15.70
2010,06,29,12,17,15.70
2010,06,29,12,18,15.70
2010,06,29,12,19,15.70
2010,06,29,12,20,15.70
2010,06,29,12,21,15.70
2010,06,29,12,22,15.70
2010,06,29,12,23,15.60
2010,06,29,12,24,15.50
2010,06,29,12,25,15.40
2010,06,29,12,26,15.40
2010,06,29,12,27,15.30
2010,06,29,12,28,15.30
2010,06,29,12,29,15.20
2010,06,29,12,30,15.00
2010,06,29,12,31,15.20
2010,06,29,12,32,15.30
2010,06,29,12,33,15.40
2010,06,29,12,34,15.50
2010,06,29,12,35,15.70
2010,06,29,12,36,15.70
2010,06,29,12,37,15.80
2010,06,29,12,38,15.80
2010,06,29,12,39,15.80
2010,06,29,12,40,15.80
2010,06,29,12,41,15.80
2010,06,29,12,42,15.80
2010,06,29,12,43,15.80
2010,06,29,12,44,15.70
2010,06,29,12,45,15.70
2010,06,29,12,46,15.70
2010,06,29,12,47,15.70
2010,06,29,12,48,15.70
2010,06,29,12,49,15.70
2010,06,29,12,50,15.70
2010,06,29,12,51,15.60
2010,06,29,12,52,15.50
2010,06,29,12,53,15.60
2010,06,29,12,54,15.60
2010,06,29,12,55,15.50
2010,06,29,12,56,15.30
2010,06,29,12,57,15.30
2010,06,29,12,58,15.20
2010,06,29,12,59,15.30
2010,06,29,13,00,15.40
2010,06,29,13,01,15.40
2010,06,29,13,02,15.40
2010,06,29,13,03,15.40
2010,06,29,13,04,15.50
2010,06,29,13,05,15.60
2010,06,29,13,06,15.70
2010,06,29,13,07,15.80
2010,06,29,13,08,16.00
2010,06,29,13,09,16.20
2010,06,29,13,10,16.40
2010,06,29,13,11,16.60
2010,06,29,13,12,16.80
2010,06,29,13,13,17.00
2010,06,29,13,14,17.20
2010,06,29,13,15,17.30
2010,06,29,13,16,17.40
2010,06,29,13,17,17.50
2010,06,29,13,18,17.70
2010,06,29,13,19,17.80
2010,06,29,13,20,17.90
2010,06,29,13,21,18.00
2010,06,29,13,22,18.10
2010,06,29,13,23,18.20
2010,06,29,13,24,18.30
2010,06,29,13,25,18.30
2010,06,29,13,26,18.40
2010,06,29,13,27,18.50
2010,06,29,13,28,18.60
2010,06,29,13,29,18.60
2010,06,29,13,30,18.70
2010,06,29,13,31,18.70
2010,06,29,13,32,18.60
2010,06,29,13,33,18.50
2010,06,29,13,34,18.40
2010,06,29,13,35,18.40
2010,06,29,13,36,18.40
2010,06,29,13,37,18.30
2010,06,29,13,38,18.40
2010,06,29,13,39,18.40
2010,06,29,13,40,18.40
2010,06,29,13,41,18.40
2010,06,29,13,42,18.50
2010,06,29,13,43,18.60
2010,06,29,13,44,18.60
2010,06,29,13,45,18.70
2010,06,29,13,46,18.80
2010,06,29,13,47,18.90
2010,06,29,13,48,19.00
2010,06,29,13,49,19.10
2010,06,29,13,50,19.00
2010,06,29,13,51,18.90
2010,06,29,13,52,18.80
2010,06,29,13,53,18.80
2010,06,29,13,54,18.80
2010,06,29,13,55,18.90
2010,06,29,13,56,18.90
2010,06,29,13,57,18.80
2010,06,29,13,58,18.80
2010,06,29,13,59,18.80
2010,06,29,14,00,18.90
2010,06,29,14,01,18.90
2010,06,29,14,02,19.00
2010,06,29,14,03,19.00
2010,06,29,14,04,18.90
2010,06,29,14,05,18.80
2010,06,29,14,06,18.60
2010,06,29,14,07,18.30
2010,06,29,14,08,18.20
2010,06,29,14,09,18.20
2010,06,29,14,10,18.30
2010,06,29,14,11,18.30
2010,06,29,14,12,18.40
2010,06,29,14,13,18.50
2010,06,29,14,14,18.70
2010,06,29,14,15,18.80
2010,06,29,14,16,18.90
2010,06,29,14,17,18.80
2010,06,29,14,18,18.70
2010,06,29,14,19,18.40
2010,06,29,14,20,18.00
2010,06,29,14,21,17.70
2010,06,29,14,22,17.70
2010,06,29,14,23,17.60
2010,06,29,14,24,17.60
2010,06,29,14,25,17.60
2010,06,29,14,26,17.50
2010,06,29,14,27,17.40
2010,06,29,14,28,17.40
2010,06,29,14,29,17.30
2010,06,29,14,30,17.30
2010,06,29,14,31,17.40
2010,06,29,14,32,17.40
2010,06,29,14,33,17.60
2010,06,29,14,34,17.60
2010,06,29,14,35,17.60
2010,06,29,14,36,17.70
2010,06,29,14,37,17.70
2010,06,29,14,38,17.70
2010,06,29,14,39,17.90
2010,06,29,14,40,18.00
2010,06,29,14,41,18.10
2010,06,29,14,42,18.20
2010,06,29,14,43,18.20
2010,06,29,14,44,18.20
2010,06,29,14,45,18.30
2010,06,29,14,46,18.30
2010,06,29,14,47,18.30
2010,06,29,14,48,18.20
2010,06,29,14,49,18.10
2010,06,29,14,50,18.00
2010,06,29,14,51,18.00
2010,06,29,14,52,18.00
2010,06,29,14,53,17.90
2010,06,29,14,54,17.90
2010,06,29,14,55,17.80
2010,06,29,14,56,17.70
2010,06,29,14,57,17.80
2010,06,29,14,58,17.80
2010,06,29,14,59,17.70
2010,06,29,15,00,17.50
2010,06,29,15,01,17.20
2010,06,29,15,02,16.90
2010,06,29,15,03,16.70
2010,06,29,15,04,16.60
2010,06,29,15,05,16.50
2010,06,29,15,06,16.50
2010,06,29,15,07,16.50
2010,06,29,15,08,16.50
2010,06,29,15,09,16.50
2010,06,29,15,10,16.50
2010,06,29,15,11,16.50
2010,06,29,15,12,16.50
2010,06,29,15,13,16.50
2010,06,29,15,14,16.50
2010,06,29,15,15,16.50
2010,06,29,15,16,16.50
2010,06,29,15,17,16.50
2010,06,29,15,18,16.50
2010,06,29,15,19,16.50
2010,06,29,15,20,16.30
2010,06,29,15,21,16.30
2010,06,29,15,22,16.20
2010,06,29,15,23,16.30
2010,06,29,15,24,16.30
2010,06,29,15,25,16.30
2010,06,29,15,26,16.20
2010,06,29,15,27,16.10
2010,06,29,15,28,16.10
2010,06,29,15,29,16.10
2010,06,29,15,30,16.10
2010,06,29,15,31,16.00
2010,06,29,15,32,16.00
2010,06,29,15,33,15.90
2010,06,29,15,34,15.90
2010,06,29,15,35,15.90
2010,06,29,15,36,15.90
2010,06,29,15,37,15.80
2010,06,29,15,38,15.70
2010,06,29,15,39,15.50
2010,06,29,15,40,15.50
2010,06,29,15,41,15.40
2010,06,29,15,42,15.30
2010,06,29,15,43,15.30
2010,06,29,15,44,15.20
2010,06,29,15,45,15.20
2010,06,29,15,46,15.20
2010,06,29,15,47,15.20
2010,06,29,15,48,15.20
2010,06,29,15,49,15.10
2010,06,29,15,50,15.00
2010,06,29,15,51,15.00
2010,06,29,15,52,15.00
2010,06,29,15,53,14.90
2010,06,29,15,54,14.80
2010,06,29,15,55,14.70
2010,06,29,15,56,14.60
2010,06,29,15,57,14.60
2010,06,29,15,58,14.60
2010,06,29,15,59,14.50
2010,06,29,16,00,14.40
2010,06,29,16,01,14.40
2010,06,29,16,02,14.40
2010,06,29,16,03,14.40
2010,06,29,16,04,14.40
2010,06,29,16,05,14.40
2010,06,29,16,06,14.30
2010,06,29,16,07,14.30
2010,06,29,16,08,14.30
2010,06,29,16,09,14.30
2010,06,29,16,10,14.30
2010,06,29,16,11,14.30
2010,06,29,16,12,14.30
2010,06,29,16,13,14.30
2010,06,29,16,14,14.30
2010,06,29,16,15,14.20
2010,06,29,16,16,14.20
2010,06,29,16,17,14.20
2010,06,29,16,18,14.20
2010,06,29,16,19,14.20
2010,06,29,16,20,14.20
2010,06,29,16,21,14.20
2010,06,29,16,22,14.20
2010,06,29,16,23,14.20
2010,06,29,16,24,14.10
2010,06,29,16,25,14.10
2010,06,29,16,26,14.10
2010,06,29,16,27,14.10
2010,06,29,16,28,14.10
2010,06,29,16,29,14.10
2010,06,29,16,30,14.00
2010,06,29,16,31,14.00
2010,06,29,16,32,14.00
2010,06,29,16,33,14.10
2010,06,29,16,34,14.10
2010,06,29,16,35,14.10
2010,06,29,16,36,14.10
2010,06,29,16,37,14.10
2010,06,29,16,38,14.10
2010,06,29,16,39,14.20
2010,06,29,16,40,14.20
2010,06,29,16,41,14.20
2010,06,29,16,42,14.30
2010,06,29,16,43,14.30
2010,06,29,16,44,14.30
2010,06,29,16,45,14.50
2010,06,29,16,46,14.60
2010,06,29,16,47,14.90
2010,06,29,16,48,15.00
2010,06,29,16,49,15.20
2010,06,29,16,50,15.40
2010,06,29,16,51,15.40
2010,06,29,16,52,15.50
2010,06,29,16,53,15.50
2010,06,29,16,54,15.50
2010,06,29,16,55,15.60
2010,06,29,16,56,15.60
2010,06,29,16,57,15.60
2010,06,29,16,58,15.40
2010,06,29,16,59,15.30
2010,06,29,17,00,15.10
2010,06,29,17,01,15.00
2010,06,29,17,02,15.00
2010,06,29,17,03,14.80
2010,06,29,17,04,14.70
2010,06,29,17,05,14.50
2010,06,29,17,06,14.40
2010,06,29,17,07,14.30
2010,06,29,17,08,14.20
2010,06,29,17,09,14.20
2010,06,29,17,10,14.20
2010,06,29,17,11,14.20
2010,06,29,17,12,14.20
2010,06,29,17,13,14.20
2010,06,29,17,14,14.20
2010,06,29,17,15,14.10
2010,06,29,17,16,14.10
2010,06,29,17,17,14.00
2010,06,29,17,18,13.90
2010,06,29,17,19,13.90
2010,06,29,17,20,13.90
2010,06,29,17,21,13.80
2010,06,29,17,22,13.80
2010,06,29,17,23,13.90
2010,06,29,17,24,13.90
2010,06,29,17,25,13.90
2010,06,29,17,26,14.00
2010,06,29,17,27,14.00
2010,06,29,17,28,14.00
2010,06,29,17,29,14.00
2010,06,29,17,30,14.00